Regional Weather Roundup
Issued by NWS

Home | Current Version | Previous Version | Graphics & Text | Print | Product List | Glossary On
Versions: 1 2 3 4 5 6 7 8 9 10 11 12 13 14 15 16 17 18 19 20 21 22 23 24 25 26 27 28 29 30 31 32 33 34 35 36 37 38 39 40 41 42 43 44 45 46 47 48 49 50
000
ASUS43 KMKX 292121
RWRWI

WISCONSIN REGIONAL WEATHER ROUNDUP
NATIONAL WEATHER SERVICE MILWAUKEE/SULLIVAN WI
400 PM CDT WED JUL 29 2015

NOTE: "FAIR" INDICATES FEW OR NO CLOUDS BELOW 12,000 FEET WITH NO
SIGNIFICANT WEATHER AND/OR OBSTRUCTIONS TO VISIBILITY.

WIZ001-002-006>008-014>016-023>028-292200-
NORTHWEST WISCONSIN

CITY           SKY/WX    TMP DP  RH WIND       PRES   REMARKS
SUPERIOR ARPT  CLOUDY    75  59  57 W13       29.79S
ASHLAND        CLOUDY    72  60  66 SW9G16    29.80F
HAYWARD        PTSUNNY   78  52  40 SW16G29   29.86S
SIREN          MOSUNNY   80  52  37 W21G30    29.87F
CUMBERLAND     PTSUNNY   77  50  38 W20G35    29.90R
RICE LAKE      MOSUNNY   77  52  41 W20G30    29.91S
CHETEK         MOSUNNY   80  56  44 SW13      29.90S HX  80
LADYSMITH      MOSUNNY   80  53  40 W24G31    29.90F HX  80
EAU CLAIRE     SUNNY     82  53  36 W22G32    29.91S HX  81
MENOMONIE      SUNNY     81  51  35 W18G33    29.92S HX  80
NEW RICHMOND   MOSUNNY   80  53  38 W17G28    29.92S HX  80
OSCEOLA        MOSUNNY   80  53  39 W22G33    29.94S HX  80
$$

WIZ003>005-009-010-017-018-292200-
NORTH CENTRAL WISCONSIN

CITY           SKY/WX    TMP DP  RH WIND       PRES   REMARKS
MANITOWISH WTR CLOUDY    73  55  53 W18G24    29.86S
ARBOR VITAE    PTSUNNY   74  56  52 W13G25    29.87R
WOODRUFF       PTSUNNY   74  56  52 W13G25    29.87R
RHINELANDER    CLOUDY    76  53  44 W21G28    29.88R
EAGLE RIVER    CLOUDY    74  51  45 W12G24    29.86R
LAND O LAKES   CLOUDY    73  52  48 W9G28     29.86S
PHILLIPS       CLOUDY    75  55  49 W13G23    29.87S
TOMAHAWK       PTSUNNY   76  53  44 W20G26    29.89S
MEDFORD        PTSUNNY   77  55  47 W16G24    29.90S
MERRILL        NOT AVBL
$$

WIZ029-030-035-036-043>047-292200-
CENTRAL WISCONSIN

CITY           SKY/WX    TMP DP  RH WIND       PRES   REMARKS
WAUSAU         SUNNY     82  51  34 W24G39    29.87S HX  81
MOSINEE        SUNNY     81  52  36 W25G35    29.90S HX  80
MARSHFIELD     SUNNY     81  50  33 W21G36    29.91S HX  80
STEVENS POINT  SUNNY     80  51  36 W18G32    29.90S HX  80
WAUPACA        SUNNY     86  46  25 W20G33    29.88F HX  83
WAUTOMA        SUNNY     87  49  26 W22G29    29.90F HX  84
WISC RAPIDS    SUNNY     84  48  28 W21G33    29.92S HX  82
CAMP DOUGLAS   MOSUNNY   82  54  36 W23G32    29.93F HX  81
$$

WIZ011>013-019>022-031-037>040-048>050-292200-
NORTHEAST WISCONSIN

CITY           SKY/WX    TMP DP  RH WIND       PRES   REMARKS
ANTIGO         PTSUNNY   78  54  43 W18G31    29.87S
SHAWANO        SUNNY     85  50  29 W14G25    29.84F HX  83
OCONTO         SUNNY     86  52  30 W18G25    29.81S HX  84
STURGEON BAY   SUNNY     82  52  34 W20G31    29.84S HX  81
GREEN BAY      SUNNY     85  51  31 W18G31    29.85F HX  83
MANITOWOC      SUNNY     85  50  29 MISG      29.86F HX  83
APPLETON       MOSUNNY   82  46  28 W17G30    29.88F HX  81
CLINTONVILLE   SUNNY     86  46  25 W17G24    29.85F HX  83
OSHKOSH        SUNNY     84  51  31 W12G23    29.88F HX  82
$$

WIZ032>034-041-042-053>061-292200-
SOUTHWEST WISCONSIN

CITY           SKY/WX    TMP DP  RH WIND       PRES   REMARKS
LA CROSSE      SUNNY     84  51  31 W25G31    29.94F HX  82
SPARTA         SUNNY     83  48  29 W21G28    29.95S HX  81
VIROQUA        SUNNY     80  52  38 W15G22    30.00S HX  80
BOSCOBEL       SUNNY     86  53  32 W12G22    29.99F HX  84
PRAIRIE DU CHI SUNNY     84  47  27 W16G25    30.00F HX  82
PLATTEVILLE    SUNNY     81  53  37 W18       30.03S HX  81
$$

WIZ056-057-062-063-064-067-068-292200-
SOUTH CENTRAL WISCONSIN

CITY           SKY/WX    TMP DP  RH WIND       PRES   REMARKS
REEDSBURG      SUNNY     84  53  33 W18G25    29.95F HX  83
BARABOO/DELLS  SUNNY     84  46  25 W14G24    29.95F HX  82
LONE ROCK      SUNNY     84  50  30 W20G30    29.97F HX  82
MINERAL POINT  SUNNY     82  50  32 W16G24    30.01F HX  81
MADISON        MOSUNNY   83  51  33 W10G20    29.95F HX  81
MIDDLETON      SUNNY     86  45  24 W17G25    29.97F HX  83
WATERTOWN      SUNNY     82  54  37 W14G20    29.94F HX  81
MONROE         SUNNY     81  50  34 W20G26    30.00F HX  80
JANESVILLE     SUNNY     86  48  26 W15G23    29.98F HX  83
$$

WIZ051-052-058>065-066-070>072-292200-
SOUTHEAST WISCONSIN

CITY           SKY/WX    TMP DP  RH WIND       PRES   REMARKS
MILWAUKEE      MOSUNNY   85  49  28 W20G26    29.93F HX  83
WAUKESHA       SUNNY     82  48  30 W20G26    29.96F HX  81
MILWAUKEE/TIMM SUNNY     84  45  24 W16G28    29.94F HX  82
RACINE         SUNNY     86  49  27 W15G23    29.95F HX  83
BURLINGTON     SUNNY     82  48  30 W15G23    29.96F HX  81
KENOSHA        SUNNY     83  54  36 W16G29    29.95F HX  82
FOND DU LAC    SUNNY     84  50  30 W16G29    29.90F HX  82
SHEBOYGAN      SUNNY     85  52  32 W18G26    29.89F HX  83
WEST BEND      SUNNY     82  48  30 SW14G22   29.91F HX  81
JUNEAU         SUNNY     81  52  36 W18G29    29.94F HX  80
$$

LSZ147-162-292200-
LAKE SUPERIOR

STATION/POSITION TIME  TEMP    WIND        PRES    WAVE
                       AIR SEA DIR/SP/G            HT/PER
                 (UTC) (F)     (DEG/KT/KT) (MB)    (FT/S)
W MID LAKE BUOY  2050   63 55  240/ 17/ 21 1006.4R   6/ 7
DEVILS ISLAND    2100   69     230/ 21/ 24 1007.3F
PORT WING        2040   73     220/  9/ 16 1008.8S
SAXON HARBOR     2040   73                 1008.8F
$$

LMZ867-665-643>646-292200-
LAKE MICHIGAN

STATION/POSITION TIME  TEMP    WIND        PRES    WAVE
                       AIR SEA DIR/SP/G            HT/PER
                 (UTC) (F)     (DEG/KT/KT) (MB)    (FT/S)
CHAMBERS ISLAND  2000   80     210/  9/ 16 1008.8F
S GREEN BAY BUOY 2100   73 69  240/ 16/ 17 1011.2
N MID LAKE BUOY  2050   74 70  210/ 16/ 19 1008.0F   3/ 5
NORTHPORT PIER   2000   83     260/  9/ 15 1008.5F
SISTER BAY       2044   83     250/ 17/ 20   N/A
ALGOMA LAKESHORE 2012          260/ 15/ 24   N/A
KEWAUNEE LAKESHO 2018   83                   N/A
SHEBOYGAN LAKESH 2100   83     270/ 17/ 22 1011.5F
PORT WASHINGTON  2040   86     250/ 15/ 24 1012.9F
ATWATER BUOY     2100   78     270/ 14/ 17 1014.2F
MILWAUKEE LAKESH 2100   83     280/ 18/ 25   N/A
KENOSHA   LAKESH 2100   84     260/ 17/ 24 1013.5F
$$

TC  - TEMPERATURE IN CELSIUS
VSB - VISIBILITY IN STATUTE MILES
WCI - WIND CHILL INDEX
HX  - HEAT INDEX



USA.gov is the U.S. government's official web portal to all federal, state and local government web resources and services.